Date,TemperatureHighF,TemperatureAvgF,TemperatureLowF,DewpointHighF,DewpointAvgF,DewpointLowF,HumidityHigh,HumidityAvg,HumidityLow,PressureMaxIn,PressureMinIn,WindSpeedMaxMPH,WindSpeedAvgMPH,GustSpeedMaxMPH,PrecipitationSumIn
2013-1-24,19.4,16.3,15.8,-0.4,-6.1,-9.2,48,36,27,30.30,30.19,18,14,18,0.00
2013-1-25,23.0,15.3,12.2,1.2,-2.4,-5.9,56,45,32,30.35,30.25,18,11,18,0.00
2013-1-26,26.6,22.1,17.6,8.4,3.8,1.2,49,45,39,30.30,30.05,19,14,19,0.00
2013-1-27,33.8,23.1,14.0,8.7,2.5,-2.2,73,43,25,30.49,30.30,16,9,16,0.00
2013-1-28,37.4,28.6,17.6,35.6,22.2,3.0,100,79,37,30.47,30.00,11,4,11,0.01
2013-1-29,41.0,35.9,30.2,39.2,34.4,30.2,100,94,81,30.18,29.99,12,4,12,0.00
2013-1-30,53.6,45.5,32.0,53.6,45.5,32.0,100,100,94,30.15,29.49,21,10,21,0.00
2013-1-31,55.4,46.1,32.0,55.4,34.6,8.4,100,69,34,29.67,29.08,35,22,35,0.16
2013-2-1,33.8,29.0,21.2,15.9,7.2,1.0,53,40,26,30.15,29.67,19,13,19,0.00
2013-2-2,30.2,25.6,17.6,23.0,11.3,6.7,86,55,46,30.28,30.07,18,10,18,0.00
2013-2-3,33.8,26.5,21.2,21.2,16.8,12.1,93,68,43,30.07,29.74,10,5,10,0.00
2013-2-4,32.0,26.5,21.2,15.8,8.4,3.0,79,48,31,29.97,29.76,21,11,21,0.00
2013-2-5,26.6,26.4,24.8,24.9,19.2,5.0,93,76,39,30.01,29.91,9,6,9,0.00
2013-2-6,41.0,31.6,26.6,32.1,21.3,-0.5,100,70,28,30.32,29.91,14,7,14,0.00
2013-2-7,30.2,27.0,19.4,17.4,6.4,-2.2,63,42,28,30.52,30.32,13,6,13,0.00
2013-2-8,33.8,31.3,26.6,32.0,29.5,15.7,100,93,63,30.43,29.46,36,20,36,0.32
2013-2-9,32.0,23.4,17.6,32.0,6.6,-0.4,100,49,38,30.24,29.46,29,16,29,0.00
2013-2-10,32.0,22.3,10.4,32.0,8.5,-0.6,100,57,29,30.43,30.24,12,6,13,0.00
2013-2-11,41.0,30.6,17.6,41.0,29.8,15.7,100,97,86,30.35,29.65,20,5,20,0.03
2013-2-12,44.6,38.8,32.0,39.2,30.9,24.6,100,75,49,29.91,29.66,13,7,13,0.00
2013-2-13,37.4,34.5,28.4,30.0,25.2,21.2,80,69,56,29.91,29.67,12,5,12,0.00
2013-2-14,39.2,34.1,24.8,33.8,28.7,24.8,100,82,56,30.02,29.70,11,6,11,0.04
2013-2-15,44.6,36.5,26.6,39.2,35.0,26.6,100,95,76,30.04,29.93,16,5,16,0.00
2013-2-16,37.4,34.6,30.2,33.8,31.8,24.7,100,90,75,29.93,29.66,16,8,16,0.00
2013-2-17,32.0,24.9,17.6,32.0,12.2,0.0,100,48,68,29.80,29.48,29,21,29,0.00
2013-2-18,32.0,24.0,17.6,17.6,3.2,0.0,100,18,100,30.21,29.77,27,17,27,0.00
2013-2-19,44.6,37.2,19.4,44.6,30.9,0.0,100,79,64,30.21,29.62,14,7,14,0.10
2013-2-20,42.8,34.1,26.6,42.8,19.0,6.6,100,57,37,29.86,29.61,19,14,19,0.00
2013-2-21,33.8,29.0,24.8,15.7,13.0,10.5,63,51,40,30.22,29.86,25,18,25,0.00
2013-2-22,37.4,32.0,23.0,28.5,22.8,15.7,80,69,56,30.38,30.22,18,7,18,0.00
2013-2-23,39.2,36.7,33.8,37.4,34.6,28.3,100,92,80,30.31,29.80,14,10,14,0.01
2013-2-24,39.2,37.4,33.8,39.2,37.2,33.8,100,99,93,29.90,29.66,19,12,19,0.00
2013-2-25,42.8,35.9,30.2,33.9,32.3,28.4,100,87,70,30.25,29.90,10,5,10,0.00
2013-2-26,41.0,36.4,28.4,37.4,33.5,28.4,100,90,75,30.32,30.05,19,7,19,0.00
2013-2-27,44.6,41.1,32.0,44.6,35.4,0.0,100,87,93,30.08,29.56,34,17,34,0.04
2013-2-28,44.6,40.4,37.4,44.6,27.0,0.0,100,65,100,29.63,29.53,9,3,9,0.00
2013-3-1,46.4,42.6,35.6,39.2,37.2,35.4,100,83,66,29.63,29.53,19,9,19,0.00
2013-3-2,46.4,46.4,46.4,37.5,37.5,37.5,71,71,71,29.62,29.62,10,10,10,0.00
2013-3-3,46.4,46.4,46.4,37.5,37.5,37.5,71,71,71,29.62,29.62,10,10,10,0.00
2013-3-4,46.4,46.4,46.4,37.5,37.5,37.5,71,71,71,29.62,29.62,10,10,10,0.00
2013-3-5,46.4,46.4,46.4,37.5,37.5,37.5,71,71,71,29.62,29.62,10,10,10,0.00
2013-3-6,46.4,46.4,46.4,37.5,37.5,37.5,71,71,71,29.62,29.62,10,10,10,0.00
2013-3-7,46.4,46.4,46.4,37.5,37.5,37.5,71,71,71,29.62,29.62,10,10,10,0.00
2013-3-8,46.4,46.4,46.4,37.5,37.5,37.5,71,71,71,29.62,29.62,10,10,10,0.00
2013-3-9,46.4,46.4,46.4,37.5,37.5,37.5,71,71,71,29.62,29.62,10,10,10,0.00
2013-3-10,46.4,46.4,46.4,37.5,37.5,37.5,71,71,71,29.62,29.62,10,10,10,0.00
2013-3-11,46.4,46.4,46.4,37.5,37.5,37.5,71,71,71,29.62,29.62,10,10,10,0.00
2013-3-12,46.4,46.4,46.4,37.5,37.5,37.5,71,71,71,29.62,29.62,10,10,10,0.00
2013-3-13,46.4,46.4,46.4,37.5,37.5,37.5,71,71,71,29.62,29.62,10,10,10,0.00
2013-3-14,46.4,46.4,46.4,37.5,37.5,37.5,71,71,71,29.62,29.62,10,10,10,0.00
2013-3-15,46.4,42.6,35.6,37.5,30.3,15.9,71,62,41,29.79,29.62,19,12,19,0.00
2013-3-16,37.4,34.8,30.2,26.7,18.8,6.5,75,54,27,29.88,29.73,11,8,11,0.00
2013-3-17,39.2,32.7,28.4,26.7,11.6,3.0,80,44,23,30.30,29.88,16,9,16,0.00
2013-3-18,33.8,29.2,21.2,28.4,11.2,1.0,93,49,28,30.44,30.13,17,10,17,0.00
2013-3-19,42.8,36.0,30.2,39.2,33.8,28.3,100,92,80,30.13,29.57,21,15,21,0.01
2013-3-20,42.8,35.4,30.2,30.1,21.7,15.7,86,59,33,29.82,29.72,21,11,21,0.00
2013-3-21,39.2,33.6,30.2,28.3,23.0,17.7,86,66,48,29.83,29.61,13,7,13,0.00
2013-3-22,39.2,33.9,26.6,24.8,15.2,8.8,80,46,35,29.81,29.65,17,11,17,0.00
2013-3-23,46.4,37.5,30.2,23.1,19.2,12.5,74,50,25,29.86,29.70,21,12,21,0.00
2013-3-24,48.2,38.5,30.2,33.9,23.0,17.4,87,56,36,29.88,29.70,13,9,13,0.00
2013-3-25,44.6,38.2,32.0,35.6,29.2,24.6,100,72,45,29.76,29.44,21,12,21,0.00
2013-3-26,46.4,38.5,30.2,35.4,29.1,21.2,93,70,39,29.81,29.51,12,6,13,0.00
2013-3-27,51.8,41.2,26.6,35.7,25.6,20.9,93,58,32,29.88,29.78,17,8,17,0.00
2013-3-28,48.2,42.5,37.4,37.4,33.0,28.2,81,69,50,30.05,29.88,13,8,13,0.00
2013-3-29,53.6,46.3,37.4,37.5,32.9,28.3,93,61,43,30.08,29.99,16,8,16,0.00
2013-3-30,55.4,46.5,37.4,35.7,29.1,17.2,87,53,22,30.12,30.03,17,10,17,0.00
2013-3-31,48.2,40.4,28.4,46.4,37.2,28.4,100,89,66,30.13,29.65,20,5,20,0.04
2013-4-1,51.8,43.8,32.0,46.4,37.9,15.9,100,82,41,29.84,29.59,19,11,19,0.00
2013-4-2,42.8,36.7,30.2,19.5,12.0,6.3,64,38,22,30.01,29.84,21,12,21,0.00
2013-4-3,46.4,36.5,30.2,14.2,10.7,8.1,47,35,21,30.23,30.01,21,12,21,0.00
2013-4-4,44.6,37.9,30.2,33.9,21.3,10.3,81,52,36,30.35,30.11,19,12,19,0.00
2013-4-5,57.2,44.8,39.2,37.5,30.0,12.1,87,61,19,30.11,29.66,20,10,20,0.00
2013-4-6,48.2,39.8,30.2,26.7,15.7,3.0,80,41,17,30.34,29.91,20,12,20,0.00
2013-4-7,50.0,40.1,26.6,42.7,33.5,23.0,93,78,57,30.33,30.05,17,8,17,0.00
2013-4-8,57.2,48.6,41.0,44.5,41.4,37.2,100,78,47,30.09,29.99,13,4,13,0.00
2013-4-9,78.8,53.8,32.0,48.4,41.8,32.0,100,71,24,30.08,29.88,21,9,21,0.01
2013-4-10,48.2,48.2,48.2,42.7,42.7,42.7,81,81,81,29.96,29.90,18,13,19,0.00
2013-4-14,55.4,50.1,41.0,33.9,26.3,22.8,48,40,32,30.23,30.00,19,13,19,0.00
2013-4-15,48.2,43.3,37.4,39.2,30.1,22.8,93,61,46,30.41,30.22,10,6,10,0.00
2013-4-16,53.6,48.2,35.6,46.5,42.7,33.8,100,82,67,30.41,30.15,12,6,12,0.00
2013-4-17,69.8,56.3,41.0,51.9,39.6,30.4,94,58,23,30.32,30.11,12,8,12,0.00
2013-4-18,55.4,47.6,32.0,46.3,37.0,32.0,100,69,41,30.39,30.15,16,7,16,0.00
2013-4-19,57.2,37.8,32.0,53.7,36.9,32.0,100,97,82,30.15,29.71,27,10,27,0.00
2013-4-20,55.4,50.4,46.4,37.5,33.9,26.6,62,53,35,30.22,29.94,17,9,27,0.00
2013-4-21,53.6,42.7,35.6,32.0,23.2,17.4,70,47,26,30.66,30.22,18,11,18,0.00
2013-4-22,51.8,43.9,33.8,35.8,30.9,26.6,86,62,40,30.68,30.54,23,12,23,0.00
2013-4-23,48.2,43.4,39.2,41.0,36.2,30.1,87,76,65,30.54,30.02,21,14,21,0.00
2013-4-24,59.0,44.9,32.0,44.6,38.5,32.0,100,80,55,30.02,29.90,19,13,20,0.00
2013-4-25,60.8,45.4,32.0,37.5,32.6,26.6,100,67,27,30.27,29.90,20,8,20,0.01
2013-4-26,57.2,47.7,35.6,44.5,36.2,30.0,93,66,41,30.40,30.27,11,6,11,0.00
2013-4-27,46.4,46.1,44.6,44.5,43.7,42.7,93,91,87,30.41,30.39,5,4,5,0.00
2013-4-29,53.6,51.9,44.6,42.7,37.9,37.4,93,59,54,30.39,30.24,6,5,6,0.00
2013-4-30,59.0,52.3,42.8,39.1,34.2,28.4,70,52,33,30.35,30.25,13,5,13,0.00
2013-5-1,59.0,48.8,35.6,46.5,39.1,28.4,93,70,54,30.48,30.35,13,6,13,0.00
2013-5-2,62.6,53.7,32.0,46.4,41.3,32.0,100,65,42,30.46,30.35,12,5,12,0.00
2013-5-3,64.4,53.0,44.6,44.7,39.3,32.2,87,61,42,30.47,30.36,18,11,18,0.00
2013-5-4,59.0,50.5,42.8,43.0,39.3,35.4,87,66,48,30.37,30.26,21,10,21,0.00
2013-5-5,55.4,46.9,32.0,42.9,39.4,32.0,100,76,58,30.31,30.25,16,9,16,0.00
2013-5-6,57.2,48.2,32.0,46.6,41.6,32.0,100,78,66,30.29,30.18,11,5,11,0.00
2013-5-7,62.6,51.3,32.0,53.7,47.3,32.0,100,87,72,30.19,30.13,10,4,10,0.00
2013-5-8,64.4,52.1,32.0,59.0,49.4,32.0,100,91,77,30.16,30.04,21,10,21,0.07
2013-5-9,64.4,46.8,32.0,57.4,45.4,32.0,100,95,77,30.04,29.87,16,4,16,0.04
2013-5-10,69.8,51.0,32.0,55.6,45.5,32.0,100,84,56,29.98,29.91,12,4,12,0.00
2013-5-11,60.8,54.5,32.0,57.3,52.0,32.0,100,91,82,29.94,29.74,10,6,10,0.28
2013-5-12,69.8,62.8,51.8,55.5,41.1,24.5,88,47,25,29.86,29.62,16,13,16,0.00
2013-5-13,57.2,51.1,44.6,33.9,29.0,22.9,57,43,30,30.04,29.86,20,12,20,0.00
2013-5-14,57.2,49.4,41.0,39.2,31.5,26.6,71,51,31,30.08,30.01,17,10,17,0.00
2013-5-15,57.2,47.4,32.0,51.9,42.5,32.0,100,84,63,30.09,29.70,19,5,19,0.00
2013-5-16,71.6,55.3,32.0,53.7,45.5,32.0,100,73,41,29.80,29.69,13,6,13,0.00
2013-5-17,71.6,59.4,50.0,48.2,41.9,35.5,82,55,31,30.23,29.80,19,7,19,0.00
2013-5-18,64.4,55.8,44.6,50.0,46.5,41.0,93,72,52,30.32,30.23,13,5,13,0.00
2013-5-19,62.6,54.2,46.4,53.7,49.2,44.5,94,84,63,30.36,30.22,13,5,13,0.01
2013-5-20,71.6,54.7,32.0,60.9,51.3,32.0,100,89,69,30.22,29.97,14,6,14,0.01
2013-5-21,71.6,52.7,32.0,62.5,48.6,32.0,100,87,69,29.98,29.86,11,5,11,0.00
2013-5-22,62.6,55.8,32.0,57.4,52.6,32.0,100,89,83,29.96,29.88,11,6,11,0.00
2013-5-23,66.2,59.2,32.0,64.4,48.7,0.0,100,80,83,29.94,29.83,19,10,19,0.08
2013-5-24,66.2,46.7,32.0,60.8,43.2,32.0,100,89,63,29.83,29.67,20,9,20,0.01
2013-5-25,53.6,48.3,44.6,53.6,43.5,39.1,100,84,76,29.83,29.75,21,16,21,0.01
2013-5-26,60.8,52.3,44.6,44.7,39.9,37.5,81,64,45,30.16,29.81,20,13,20,0.01
2013-5-27,68.0,54.2,32.0,48.4,43.4,32.0,100,69,40,30.19,30.10,17,7,17,0.00
2013-5-28,64.4,54.9,46.4,57.2,49.6,44.5,100,84,56,30.23,30.17,14,4,14,0.01
2013-5-29,69.8,60.4,55.4,64.4,58.4,55.4,100,94,83,30.18,30.02,9,4,9,0.09
2013-5-30,82.4,68.6,57.2,69.9,62.9,57.2,100,83,66,30.10,30.05,13,4,13,0.00
2013-5-31,78.8,69.6,62.6,69.8,64.4,60.8,100,84,69,30.11,30.00,10,4,10,0.00
2013-6-1,77.0,67.7,60.8,70.0,64.3,60.8,100,89,78,30.02,29.94,9,4,9,0.00
2013-6-2,73.4,67.6,62.6,66.2,64.1,62.5,100,89,78,29.95,29.83,14,8,14,0.00
2013-6-3,66.2,57.3,32.0,66.2,57.1,32.0,100,99,73,29.85,29.80,14,6,14,0.04
2013-6-4,71.6,63.0,55.4,57.3,46.2,37.2,88,55,40,30.08,29.83,20,11,20,0.00
2013-6-5,66.2,58.9,51.8,55.5,51.1,46.4,94,76,52,30.20,30.08,12,5,12,0.00
2013-6-6,66.2,59.0,32.0,60.9,55.7,32.0,100,89,72,30.19,30.07,12,5,12,0.00
2013-6-7,60.8,54.9,32.0,60.8,53.6,32.0,100,95,88,30.07,29.69,20,12,20,1.21
2013-6-8,71.6,61.6,32.0,66.2,58.2,32.0,100,90,69,30.02,29.53,17,10,17,0.01
2013-6-9,75.2,65.1,32.0,62.6,59.3,32.0,100,83,61,30.18,30.02,13,5,13,0.00
2013-6-10,69.8,59.4,32.0,62.7,56.8,32.0,100,92,64,30.18,29.92,21,9,21,0.38
2013-6-11,75.2,65.4,32.0,70.0,63.5,32.0,100,94,78,29.92,29.58,17,8,21,0.37
2013-6-12,73.4,67.2,59.0,62.5,55.0,52.0,88,67,47,29.83,29.62,24,11,24,0.00
2013-6-13,62.6,57.5,53.6,57.3,54.5,51.9,100,90,77,29.83,29.53,20,6,20,0.27
2013-6-14,68.0,59.0,53.6,57.2,53.6,50.2,100,83,60,29.81,29.52,18,12,18,0.01
2013-6-15,77.0,67.4,55.4,60.8,54.2,48.0,88,65,36,29.96,29.81,13,7,13,0.00
2013-6-16,71.6,64.1,53.6,64.4,59.2,53.6,100,85,64,29.97,29.76,13,3,13,0.00
2013-6-17,78.8,69.3,60.8,67.9,63.9,57.5,100,84,61,29.93,29.81,19,5,19,0.01
2013-6-18,75.2,66.5,60.8,66.3,62.9,59.1,100,89,73,29.92,29.84,12,5,12,0.01
2013-6-19,75.2,64.7,57.2,60.8,56.6,51.8,100,77,44,30.14,29.86,14,10,14,0.00
2013-6-20,75.2,63.9,51.8,60.9,55.6,50.2,100,77,50,30.28,30.14,10,6,10,0.00
2013-6-21,75.2,66.6,60.8,62.6,58.1,55.3,94,75,54,30.29,30.24,12,8,12,0.00
2013-6-22,75.2,67.3,60.8,64.4,60.6,55.3,100,80,65,30.26,30.16,10,6,10,0.00
2013-6-23,78.8,70.0,62.6,70.0,66.5,62.6,100,89,70,30.19,30.08,16,6,16,0.00
2013-6-24,87.8,72.4,32.0,73.6,67.9,32.0,100,87,63,30.08,29.92,13,6,13,0.00
2013-6-25,82.4,75.2,66.2,71.7,69.7,64.4,94,83,70,29.96,29.76,10,6,10,0.00
2013-6-26,82.4,74.6,68.0,73.5,69.4,66.1,100,84,70,29.83,29.75,14,5,14,0.01
2013-6-27,75.2,59.4,32.0,71.7,58.6,32.0,100,97,89,29.83,29.67,18,6,18,0.03
2013-6-28,75.2,54.6,32.0,71.7,54.1,32.0,100,98,89,29.69,29.53,18,9,18,0.22
2013-6-29,75.2,56.8,32.0,73.4,55.8,32.0,100,97,83,29.74,29.50,12,6,12,0.02
2013-6-30,71.6,60.7,32.0,71.6,60.2,32.0,100,99,83,29.95,29.74,13,6,13,0.10
2013-7-1,73.4,68.0,32.0,73.4,67.6,32.0,100,99,94,30.09,29.95,11,7,11,0.14
2013-7-2,77.0,72.0,69.8,73.5,71.2,69.8,100,97,89,30.20,30.09,10,6,10,0.00
2013-7-3,78.8,74.1,68.0,75.3,72.5,68.0,100,95,84,30.25,30.19,13,6,13,0.00
2013-7-4,84.2,76.9,73.4,77.1,74.2,71.7,100,92,75,30.25,30.15,12,7,12,0.00
2013-7-5,87.8,78.0,73.4,77.2,74.0,71.6,100,88,66,30.19,30.10,13,9,13,0.00
2013-7-6,87.8,79.6,73.4,77.2,74.6,71.6,100,85,66,30.11,30.00,13,8,13,0.00
2013-7-7,87.8,79.0,73.4,78.9,74.9,73.3,100,88,66,30.03,29.93,11,5,11,0.00
2013-7-8,86.0,77.0,71.6,73.6,72.2,69.7,100,86,62,30.03,29.93,14,8,14,0.00
2013-7-9,78.8,66.1,32.0,73.6,65.0,32.0,100,96,84,30.08,30.01,11,5,11,0.00
2013-7-10,78.8,68.6,32.0,75.3,67.5,32.0,100,96,84,30.05,29.82,14,6,14,0.02
2013-7-11,75.2,73.2,69.8,75.2,72.6,69.8,100,98,94,29.91,29.80,25,3,25,0.02
2013-7-12,80.6,73.9,68.0,71.6,68.4,62.5,100,84,70,30.15,29.90,16,11,16,0.00
2013-7-13,75.2,61.6,32.0,75.2,61.2,32.0,100,99,94,30.30,30.15,11,7,12,0.01
2013-7-14,86.0,70.0,32.0,78.8,67.7,32.0,100,93,70,30.31,30.22,12,5,12,0.13
2013-7-15,91.4,78.4,32.0,78.9,72.5,32.0,100,84,53,30.22,30.10,12,4,12,0.00
2013-7-16,95.0,84.0,75.2,73.5,70.5,66.0,94,66,41,30.15,30.10,11,6,11,0.00
2013-7-17,84.2,78.7,73.4,71.6,69.2,66.1,89,73,55,30.18,30.06,10,4,10,0.00
2013-7-18,91.4,82.2,73.4,73.6,71.3,69.6,89,71,49,30.06,29.95,11,5,11,0.00
2013-7-19,91.4,71.2,32.0,75.4,63.7,32.0,100,79,53,29.96,29.78,16,6,16,0.00
2013-7-20,87.8,79.6,32.0,73.5,69.8,32.0,100,73,55,29.83,29.69,13,7,13,0.00
2013-7-21,78.8,75.2,71.6,68.1,62.9,59.1,83,66,51,29.98,29.83,9,3,9,0.00
2013-7-22,80.6,68.7,32.0,70.0,62.3,32.0,100,81,61,29.98,29.85,13,8,13,0.00
2013-7-23,82.4,59.3,32.0,73.5,56.0,32.0,100,90,70,29.85,29.56,13,9,13,0.03
2013-7-24,82.4,71.0,32.0,71.6,66.8,32.0,100,88,61,29.90,29.59,14,3,14,0.00
2013-7-25,71.6,64.4,60.8,60.8,57.3,51.9,94,78,65,30.04,29.90,14,11,14,0.00
2013-7-26,73.4,66.8,60.8,66.2,62.8,59.0,94,87,73,30.04,29.94,17,10,17,0.02
2013-7-27,69.8,68.3,66.2,66.1,65.4,64.4,94,90,88,30.05,30.04,8,5,8,0.00
2013-8-18,69.8,65.6,62.6,60.9,59.5,55.3,94,82,60,30.15,30.11,4,3,5,0.00
2013-8-19,77.0,69.9,60.8,66.3,61.8,57.0,94,76,61,30.11,30.00,12,5,12,0.00
2013-8-20,80.6,72.4,32.0,66.4,62.9,32.0,100,74,48,30.12,30.01,12,4,12,0.00
2013-8-21,71.6,63.7,32.0,66.2,61.2,32.0,100,92,83,30.16,30.12,3,0,3,0.00
2013-8-22,75.2,72.3,69.8,71.7,69.8,68.0,94,92,83,30.02,29.87,17,5,17,0.04
2013-8-23,82.4,72.9,62.6,69.8,63.3,53.5,100,75,37,30.10,29.84,12,5,12,0.00
2013-8-24,78.8,66.2,55.4,60.8,54.9,51.5,94,69,39,30.35,30.10,11,6,11,0.00
2013-8-25,78.8,66.6,53.6,62.6,57.4,51.8,94,75,39,30.37,30.22,11,5,11,0.00
2013-8-26,78.8,71.8,69.8,69.8,64.1,60.8,94,77,61,30.22,29.91,19,9,19,0.21
2013-8-27,80.6,71.0,32.0,70.0,69.0,32.0,100,94,70,29.91,29.81,13,6,13,0.07
2013-9-6,68.0,62.7,51.8,50.1,46.4,39.2,94,58,37,30.23,30.13,12,6,13,0.00
2013-9-7,75.2,62.6,48.2,60.9,51.9,46.3,100,71,39,30.13,29.90,16,6,16,0.00
2013-9-8,80.6,70.4,55.4,62.7,55.8,42.6,83,62,36,30.08,29.78,16,9,16,0.00
2013-9-9,66.2,59.2,46.4,55.6,45.9,40.8,87,63,42,30.24,30.08,14,8,14,0.00
2013-9-10,73.4,69.9,64.4,69.8,64.3,55.3,94,83,68,30.18,30.04,16,10,16,0.00
2013-9-11,87.8,75.0,68.0,73.6,70.4,66.1,100,86,63,30.11,30.01,11,5,11,0.00
2013-9-12,78.8,72.2,32.0,71.7,69.3,32.0,100,91,79,30.01,29.70,21,7,21,0.31
2013-9-13,78.8,68.3,32.0,69.8,61.8,32.0,100,81,61,29.77,29.60,13,6,13,0.01
2013-9-14,69.8,61.8,53.6,55.3,51.5,48.2,88,70,53,30.08,29.77,12,8,12,0.00
2013-9-15,66.2,58.6,48.2,57.0,48.6,42.6,94,71,45,30.18,30.08,13,6,13,0.00
2013-9-16,69.8,62.2,53.6,57.2,53.9,39.2,94,75,56,30.22,30.03,16,7,16,0.00
2013-9-17,64.4,52.9,42.8,44.7,38.8,35.4,93,61,37,30.41,30.22,16,8,16,0.00
2013-9-18,66.2,55.2,42.8,53.5,44.6,39.2,93,71,40,30.35,30.18,12,6,12,0.00
2013-9-19,71.6,62.0,50.0,57.4,53.1,46.3,94,74,50,30.18,30.07,13,6,13,0.00
2013-9-20,71.6,60.8,32.0,62.6,56.6,32.0,100,87,69,30.10,30.03,10,5,10,0.00
2013-9-21,71.6,64.9,53.6,66.2,62.3,53.6,100,91,78,30.04,29.73,18,7,18,0.00
2013-9-22,71.6,64.8,32.0,66.2,55.6,32.0,100,74,49,29.86,29.64,26,9,26,0.01
2013-9-23,64.4,55.5,46.4,46.6,43.5,39.3,82,65,48,30.02,29.86,14,9,14,0.00
2013-9-24,69.8,55.0,42.8,50.1,43.1,39.1,93,67,38,30.03,29.83,12,6,12,0.00
2013-9-25,68.0,58.9,44.6,57.4,49.3,42.7,93,72,46,29.96,29.87,11,6,11,0.00
2013-9-26,66.2,59.1,51.8,51.9,50.4,48.1,94,74,52,30.11,29.96,9,5,9,0.00
2013-9-27,66.2,59.1,51.8,53.7,51.9,48.1,100,78,60,30.27,30.11,11,6,11,0.00
2013-9-28,69.8,59.3,50.0,57.1,53.0,48.3,100,81,60,30.31,30.25,10,3,10,0.00
2013-9-29,66.2,53.7,32.0,55.3,48.6,32.0,100,85,56,30.25,30.10,14,5,14,0.00
2013-9-30,71.6,59.1,51.8,53.7,51.8,46.7,94,79,41,30.10,29.97,10,5,10,0.00
2013-10-1,78.8,60.8,48.2,60.9,53.7,46.3,100,80,42,29.98,29.87,13,4,13,0.00
2013-10-2,75.2,63.8,32.0,64.2,58.5,32.0,100,84,61,29.99,29.87,16,4,16,0.00
2013-10-3,75.2,62.2,32.0,60.8,54.0,32.0,100,78,39,30.10,29.99,11,4,11,0.00
2013-10-4,73.4,63.3,55.4,64.2,58.7,53.7,94,85,73,30.08,30.00,8,2,8,0.00
2013-10-5,69.8,62.5,32.0,62.6,58.9,32.0,100,88,73,30.11,30.04,8,4,8,0.20
2013-10-6,64.4,61.6,32.0,60.8,59.1,32.0,100,92,83,30.17,30.09,16,8,16,0.02
2013-10-7,73.4,60.3,32.0,69.8,57.4,32.0,100,91,78,30.09,29.86,20,11,20,0.00
2013-10-8,69.8,59.9,51.8,59.1,45.5,41.2,83,61,38,30.34,29.91,16,8,16,0.00
2013-10-9,64.4,54.3,46.4,46.5,43.9,41.0,87,69,49,30.41,30.33,18,9,18,0.00
2013-10-10,66.2,58.1,50.0,55.6,51.2,46.3,87,78,68,30.33,30.11,12,9,12,0.00
2013-10-11,69.8,63.1,57.2,57.1,54.3,35.3,88,74,41,30.11,30.05,17,11,17,0.00
2013-10-12,73.4,59.5,51.8,57.1,49.5,40.9,88,70,43,30.34,30.11,20,11,20,0.00
2013-10-13,60.8,55.0,46.4,50.0,47.3,40.9,93,76,59,30.40,30.32,14,8,14,0.00
2013-10-14,60.8,50.1,39.2,48.3,44.5,39.1,100,82,63,30.40,30.27,6,4,6,0.00
2013-10-15,66.2,55.2,44.6,51.8,46.7,42.6,93,75,45,30.27,30.16,11,6,11,0.00
2013-10-16,69.8,56.8,32.0,57.4,51.9,32.0,100,84,60,30.16,29.92,12,4,12,0.00
2013-10-17,68.0,63.0,59.0,62.6,60.2,57.2,100,91,78,29.92,29.74,14,7,14,0.00
2013-10-18,68.0,63.4,53.6,62.6,52.9,42.6,100,70,43,29.94,29.65,20,11,20,0.00
2013-10-19,64.4,54.3,39.2,53.5,45.5,39.1,100,74,49,29.99,29.75,11,5,11,0.00
2013-10-20,64.4,56.7,42.8,57.4,42.2,32.3,88,62,30,30.05,29.71,16,8,16,0.00
2013-10-21,64.4,53.4,37.4,48.1,42.1,35.6,93,68,45,30.14,30.01,17,7,17,0.00
2013-10-22,66.2,60.4,50.0,53.6,50.5,41.0,77,70,56,30.01,29.73,16,9,17,0.00
2013-10-23,50.0,47.5,44.6,41.0,37.6,34.0,81,69,54,29.78,29.61,12,5,12,0.00
2013-10-24,55.4,47.0,39.2,35.7,30.9,24.5,81,56,30,29.94,29.69,18,9,18,0.00
2013-10-25,50.0,44.1,35.6,32.0,28.3,26.6,75,55,40,30.10,29.94,18,9,18,0.00
2013-10-26,55.4,54.5,48.2,40.9,35.3,28.2,58,49,35,30.12,29.90,28,21,28,0.00
2013-10-27,57.2,50.4,33.8,39.2,34.3,28.2,81,55,35,30.10,29.84,20,9,20,0.00
2013-10-28,59.0,46.0,30.2,39.4,34.0,28.3,93,66,41,30.34,30.10,17,7,17,0.00
2013-10-29,53.6,44.1,35.6,33.8,27.7,24.7,75,54,35,30.42,30.34,11,6,11,0.00
2013-10-30,57.2,47.2,35.6,50.1,38.9,28.5,93,73,58,30.37,30.20,9,4,9,0.00
2013-10-31,64.4,54.8,32.0,60.8,51.3,32.0,100,88,82,30.24,29.83,18,7,18,0.02
2013-11-1,66.2,62.5,32.0,62.5,58.4,32.0,100,87,77,29.83,29.55,31,18,31,0.01
2013-11-2,62.6,57.5,50.0,55.3,49.3,43.0,94,74,59,29.73,29.62,8,4,8,0.00
2013-11-3,53.6,46.7,35.6,46.6,33.7,17.4,81,62,36,30.41,29.73,17,10,17,0.00
2013-11-4,46.4,37.7,30.2,24.6,18.1,15.9,64,46,29,30.69,30.41,14,9,14,0.00
2013-11-5,51.8,42.0,32.0,39.1,32.2,24.7,81,69,54,30.70,30.52,10,5,10,0.00
2013-11-6,60.8,51.8,37.4,53.7,45.3,37.3,100,80,59,30.52,30.09,13,7,13,0.00
2013-11-7,62.6,59.0,48.2,60.8,56.8,44.5,100,92,82,30.09,29.70,19,10,19,0.06
2013-11-15,48.2,40.7,37.4,42.7,38.0,35.6,93,90,81,30.23,30.20,3,2,9,0.00
2013-11-16,55.4,44.4,33.8,46.5,39.3,33.8,100,83,58,30.32,30.23,10,3,10,0.00
2013-11-17,59.0,45.5,32.0,59.0,44.1,32.0,100,95,82,30.30,29.84,12,6,12,0.01
2013-11-18,62.6,54.4,32.0,60.8,43.3,30.2,100,70,36,29.84,29.59,25,12,25,0.14
2013-11-19,50.0,43.3,35.6,34.0,23.7,19.3,57,46,36,30.30,29.70,23,14,23,0.00
2013-11-20,44.6,33.9,26.6,19.5,15.5,8.1,69,49,22,30.62,30.30,13,8,13,0.00
2013-11-21,50.0,36.4,24.8,39.2,24.3,15.7,75,62,39,30.63,30.40,9,3,9,0.00
2013-11-22,53.6,51.9,50.0,51.9,47.1,39.1,94,84,66,30.40,29.85,14,7,14,0.01
2013-11-23,53.6,44.3,30.2,48.2,26.8,15.7,87,53,27,29.93,29.83,25,14,25,0.00
2013-11-24,30.2,26.4,23.0,17.6,4.2,-2.1,59,39,28,30.27,29.88,28,20,28,0.00
2013-11-25,39.2,29.0,19.4,26.5,10.8,3.2,60,47,32,30.43,30.27,20,11,20,0.00
2013-11-26,51.8,41.0,37.4,48.1,29.4,17.5,100,66,41,30.34,29.95,24,9,24,0.07
2013-11-27,57.2,54.8,51.8,57.2,53.3,48.1,100,95,87,29.95,29.45,39,24,39,0.02
2013-12-1,57.2,40.8,32.0,57.2,39.7,32.0,100,96,93,30.14,29.45,39,5,39,0.02
2013-12-2,46.4,37.5,32.0,39.1,35.4,32.0,100,93,71,30.01,29.90,8,4,8,0.00
2013-12-3,53.6,39.9,32.0,35.8,33.3,28.5,100,80,41,29.98,29.85,11,6,11,0.00
2013-12-4,46.4,36.9,28.4,35.7,31.1,26.5,93,80,61,30.18,29.98,10,2,10,0.00
2013-12-5,55.4,48.4,32.0,53.7,46.5,32.0,100,93,81,30.18,29.96,13,5,13,0.00
2013-12-6,53.6,42.0,32.0,53.6,39.8,32.0,100,92,81,30.11,29.90,14,7,14,0.07
2013-12-7,42.8,37.3,30.2,37.3,28.4,19.3,93,72,52,30.49,30.07,17,10,17,0.01
2013-12-8,33.8,31.0,26.6,19.5,18.0,15.7,74,59,47,30.60,30.45,10,6,10,0.00
2013-12-9,41.0,35.1,28.4,39.2,33.1,22.9,100,92,74,30.45,29.91,16,10,16,0.06
2013-12-10,35.6,32.8,28.4,33.8,30.5,21.2,100,91,80,30.07,29.81,13,4,13,0.05
2013-12-11,33.8,30.0,26.6,21.2,18.0,15.7,74,60,51,30.28,30.07,14,11,14,0.00
2013-12-12,30.2,24.1,19.4,16.0,9.3,5.0,68,53,42,30.31,30.12,16,8,16,0.00
2013-12-13,33.8,27.1,21.2,16.0,11.5,6.7,63,52,44,30.35,30.08,16,10,16,0.00
2013-12-14,35.6,25.2,17.6,33.8,18.5,7.0,100,77,46,30.56,29.98,20,12,20,0.02
2013-12-15,39.2,35.2,30.2,37.4,31.5,21.0,100,87,64,29.98,29.41,26,12,26,0.02
2013-12-16,33.8,29.1,21.2,21.0,13.5,8.4,62,52,40,30.23,29.78,14,10,14,0.00
2013-12-17,32.0,22.6,15.8,32.0,17.6,8.5,100,81,62,30.26,29.90,17,10,17,0.06
2013-12-18,35.6,28.9,23.0,21.0,18.9,17.5,86,67,51,30.14,29.86,19,11,19,0.00
2013-12-19,44.6,37.5,30.2,33.7,26.3,19.3,75,64,52,30.16,30.00,19,8,19,0.00
2013-12-20,48.2,40.8,30.2,42.8,35.8,28.3,93,83,71,30.12,29.98,9,2,9,0.00
2013-12-21,53.6,49.0,39.2,48.3,45.5,37.3,100,88,77,30.02,29.92,11,5,11,0.00
2013-12-22,62.6,48.3,32.0,55.5,46.3,32.0,100,93,72,29.99,29.85,23,10,23,0.00
2013-12-23,53.6,47.2,32.0,51.9,45.2,32.0,100,93,81,30.08,29.91,17,6,17,0.01
2013-12-24,41.0,35.6,30.2,35.6,21.5,12.1,81,57,41,30.26,30.04,19,12,19,0.00
2013-12-25,28.4,23.9,19.4,12.1,6.2,3.2,58,47,36,30.54,30.26,21,8,21,0.00
2013-12-26,37.4,31.2,24.8,32.1,22.7,12.1,87,71,58,30.47,30.11,12,6,12,0.00
2013-12-27,28.4,25.8,23.0,23.0,21.3,19.5,86,83,80,30.28,30.24,5,3,5,0.00